Location: Baia Mare
(47.6567°N, 23.5850°E)
Time: 20:08:27
(UTC+02:00)

ISS - Pass Details

Date: 27 September 2018
Orbit: 401 x 409 km, 51.6° (Epoch: 18 November)

Event Time Altitude Azimuth Distance (km) Brightness Sun altitude
Rises 20:06:53 0° 246° (WSW) 2,340 1.1 -9.8°
Reaches altitude 10° 20:08:58 10° 246° (WSW) 1,480 0.0 -10.1°
Maximum altitude 20:12:18 87° 331° (NNW) 418 -3.8 -10.7°
Enters shadow 20:15:08 14° 66° (ENE) 1,281 -1.8 -11.2°
